Location: Harwich
(41.7160°N, 69.9939°W)
Time: 10:02:04
(UTC+02:00)

A-11 Canister half - Pass Details

Date: 28 February 2024
Orbit: 1513 x 1686 km, 47.2° (Epoch: 24 April)

Event Time Altitude Azimuth Distance (km) Brightness Sun altitude
Exits shadow 10:27:06 24° 293° (WNW) 2,940 10.0 -21.3°
Maximum altitude 10:33:48 68° 10° (N) 1,752 9.3 -20.0°
Drops below altitude 10° 10:43:31 10° 93° (E) 3,811 12.3 -18.2°
Sets 10:46:37 0° 96° (E) 4,772 13.2 -17.7°
